This is the latest recevied weather packets stored in our database for station/object DG4CB-13. If no packets are shown the sender has not sent any weather packets the latest 10 day(s).
| Time | Temp. | Humidity | Pressure | Rain* | Wind** | Luminosity | Snow |
|---|---|---|---|---|---|---|---|
| 1777367999 | 16.11° C | 45% | 1019.5 hPa | - | - | - | - |
| 1777367399 | 16.11° C | 45% | 1019.5 hPa | - | - | - | - |
| 1777366800 | 15.56° C | 45% | 1019.4 hPa | - | - | - | - |
| 1777366200 | 15° C | 46% | 1019.4 hPa | - | - | - | - |
| 1777365600 | 14.44° C | 46% | 1019.4 hPa | - | - | - | - |
| 1777364999 | 14.44° C | 46% | 1019.4 hPa | - | - | - | - |
| 1777364399 | 13.89° C | 46% | 1019.2 hPa | - | - | - | - |
| 1777363799 | 13.33° C | 47% | 1019.2 hPa | - | - | - | - |
| 1777363200 | 12.78° C | 49% | 1019.2 hPa | - | - | - | - |
| 1777362600 | 12.22° C | 52% | 1019.1 hPa | - | - | - | - |
| 1777362000 | 12.22° C | 52% | 1018.9 hPa | - | - | - | - |
| 1777361400 | 11.67° C | 53% | 1019 hPa | - | - | - | - |
| 1777360800 | 11.11° C | 53% | 1019.1 hPa | - | - | - | - |
| 1777360199 | 10.56° C | 54% | 1019.2 hPa | - | - | - | - |
| 1777359599 | 10.56° C | 55% | 1019.3 hPa | - | - | - | - |
| 1777359000 | 10° C | 55% | 1019.2 hPa | - | - | - | - |
| 1777358399 | 10° C | 55% | 1019.2 hPa | - | - | - | - |
| 1777357800 | 9.44° C | 56% | 1019.2 hPa | - | - | - | - |
| 1777357199 | 9.44° C | 56% | 1019.1 hPa | - | - | - | - |
| 1777356599 | 8.89° C | 56% | 1019.1 hPa | - | - | - | - |
| 1777356000 | 8.33° C | 56% | 1019.1 hPa | - | - | - | - |
| 1777355399 | 8.33° C | 57% | 1019 hPa | - | - | - | - |
| 1777354799 | 7.78° C | 57% | 1019.1 hPa | - | - | - | - |
| 1777354199 | 7.78° C | 59% | 1019.1 hPa | - | - | - | - |
| 1777353600 | 7.22° C | 61% | 1019.1 hPa | - | - | - | - |
* Rain since midnight (hover to see other rain measurements)
** Current wind speed in m/s (hover to see current wind gust speed)